Content
SEND FEEDBACK

Daily
Averages
Monthly
Summary
United States of America

SANTA ANNA, TEXAS


Home > North America > United States > Texas
Elevation: 1400 feet     Latitude: 31 35N     Longitude: 099 13W

WEATHER
 
SELECT A DAY
Number of Records: 268,944;   Date Range: 12/12/02 - 8/30/14
 
SHARE

PRINT THIS DATA

[ ← Previous Day ]
WEATHER ALMANAC - FEBRUARY 13, 2013
[ Next Day → ]
[ °C ]   °F
Weather ElementAverageHighLow
Temperature43.6 °F59 °F (3:15 pm)28.4 °F (6:35 am)
Dewpoint27.9 °F32 °F (12:35 am)17.6 °F (5:35 pm)
Humidity60.7 %100 % (6:35 am)20 % (5:35 pm)
Barometer30.09 in30.17 in (10:15 am)30.02 in (4:55 pm)
Wind Speed4.1 mph18.4 mph (12:35 am)
Wind Gust26.5 mph (12:55 am)
Weather ElementAverage
Visibility10 mi
Wind DirectionSSE (162.2 °)

Weather ElementTotal
Precipitation---
Heating Degree Days21.3 (Base 65)
Averaged from 69 records on February 13, 2013
WEATHER CONDITIONS BREAKOUT
WIND DIRECTION BREAKOUT
WEATHER BY HOUR - FEBRUARY 13, 2013
[ °C ]   °F
Local TimeTemperatureDewpointHumidityBarometerVisibilityWind DirectionWind SpeedGust SpeedPrecipitationEventsConditions
12:35 AM39.2 °F32.0 °F75 %30.10 in10.0 miNNW (340°)18.4 mph25.3 mphOvercast
12:55 AM39.2 °F32.0 °F75 %30.10 in10.0 miNNW (340°)17.3 mph26.5 mphMostly Cloudy
1:15 AM39.2 °F32.0 °F75 %30.10 in10.0 miNNW (340°)15.0 mph21.9 mphScattered Clouds
1:35 AM37.4 °F32.0 °F81 %30.10 in10.0 miNNW (340°)15.0 mphPartly Cloudy
1:55 AM37.4 °F32.0 °F81 %30.11 in10.0 miNW (320°)9.2 mphClear
2:15 AM37.4 °F32.0 °F81 %30.11 in10.0 miNW (320°)15.0 mph19.6 mphClear
2:35 AM37.4 °F32.0 °F81 %30.10 in10.0 miNNW (330°)13.8 mph20.7 mphClear
2:55 AM37.4 °F32.0 °F81 %30.11 in10.0 miNNW (340°)10.4 mphClear
3:15 AM35.6 °F32.0 °F87 %30.10 in10.0 miNNW (340°)9.2 mphClear
3:35 AM35.6 °F32.0 °F87 %30.11 in10.0 miNNW (340°)5.8 mphClear
3:55 AM33.8 °F32.0 °F93 %30.11 in10.0 miNNW (340°)4.6 mphClear
4:15 AM33.8 °F30.2 °F87 %30.11 in10.0 miNW (320°)5.8 mphClear
4:35 AM32.0 °F30.2 °F93 %30.12 in10.0 miSW (220°)3.5 mphClear
4:55 AM32.0 °F30.2 °F93 %30.12 in10.0 miWest (260°)3.5 mphClear
5:15 AM32.0 °F30.2 °F93 %30.12 in10.0 miWSW (250°)4.6 mphClear
5:35 AM30.2 °F28.4 °F93 %30.12 in10.0 miCalmClear
6:15 AM30.2 °F28.4 °F93 %30.12 in10.0 miWSW (240°)3.5 mphPartly Cloudy
6:35 AM28.4 °F28.4 °F100 %30.13 in10.0 miWSW (240°)3.5 mphClear
6:55 AM28.4 °F26.6 °F93 %30.13 in10.0 miSW (230°)3.5 mphClear
7:15 AM28.4 °F28.4 °F100 %30.14 in10.0 miSW (230°)3.5 mphClear
7:35 AM28.4 °F28.4 °F100 %30.14 in10.0 miCalmClear
7:55 AM30.2 °F30.2 °F100 %30.14 in10.0 miCalmClear
8:15 AM32.0 °F32.0 °F100 %30.15 in10.0 miCalmClear
8:35 AM33.8 °F32.0 °F93 %30.15 in10.0 miWSW (240°)3.5 mphClear
8:55 AM35.6 °F32.0 °F87 %30.16 in10.0 miWest (260°)3.5 mphClear
9:15 AM37.4 °F32.0 °F81 %30.16 in10.0 miSW (230°)3.5 mphClear
9:35 AM39.2 °F32.0 °F75 %30.16 in10.0 miWest (260°)4.6 mphClear
9:55 AM41.0 °F32.0 °F70 %30.16 in10.0 miWest (270°)3.5 mphClear
10:15 AM42.8 °F32.0 °F66 %30.17 in10.0 miWNW (300°)4.6 mphClear
10:35 AM44.6 °F32.0 °F61 %30.17 in10.0 miCalmClear
10:55 AM46.4 °F32.0 °F57 %30.16 in10.0 miCalmClear
11:15 AM48.2 °F32.0 °F54 %30.16 in10.0 miCalmClear
11:35 AM48.2 °F32.0 °F54 %30.15 in10.0 miCalmClear
11:55 AM50.0 °F32.0 °F50 %30.14 in10.0 miWest (270°)3.5 mphClear
12:15 PM51.8 °F30.2 °F44 %30.14 in10.0 miNNW (330°)3.5 mphClear
12:35 PM51.8 °F30.2 °F44 %30.12 in10.0 miNNW (340°)3.5 mphClear
12:55 PM55.4 °F26.6 °F33 %30.11 in10.0 miNorth (360°)4.6 mphClear
1:15 PM53.6 °F26.6 °F35 %30.10 in10.0 miWest (280°)5.8 mphClear
1:35 PM55.4 °F24.8 °F31 %30.09 in10.0 miCalmClear
1:55 PM55.4 °F23.0 °F29 %30.07 in10.0 miCalmClear
2:15 PM55.4 °F24.8 °F31 %30.06 in10.0 miNW (320°)4.6 mphClear
2:35 PM55.4 °F24.8 °F31 %30.06 in10.0 miCalmClear
2:55 PM57.2 °F23.0 °F27 %30.05 in10.0 miCalmClear
3:15 PM59.0 °F19.4 °F22 %30.04 in10.0 miCalmClear
3:55 PM59.0 °F19.4 °F22 %30.03 in10.0 miNNE (20°)3.5 mphClear
4:15 PM59.0 °F19.4 °F22 %30.03 in10.0 miNorth (10°)3.5 mphClear
4:35 PM59.0 °F19.4 °F22 %30.03 in10.0 miNNW (340°)4.6 mphClear
4:55 PM59.0 °F19.4 °F22 %30.02 in10.0 miCalmClear
5:15 PM59.0 °F19.4 °F22 %30.02 in10.0 miCalmClear
5:35 PM59.0 °F17.6 °F20 %30.02 in10.0 miCalmClear
5:55 PM57.2 °F19.4 °F23 %30.02 in10.0 miESE (110°)4.6 mphClear
6:15 PM55.4 °F21.2 °F26 %30.02 in10.0 miSE (140°)3.5 mphClear
6:35 PM53.6 °F24.8 °F33 %30.02 in10.0 miSE (140°)5.8 mphClear
6:55 PM50.0 °F26.6 °F40 %30.03 in10.0 miSE (140°)6.9 mphClear
7:15 PM50.0 °F26.6 °F40 %30.03 in10.0 miSE (140°)5.8 mphClear
7:35 PM48.2 °F26.6 °F43 %30.03 in10.0 miSE (140°)4.6 mphClear
7:55 PM46.4 °F28.4 °F50 %30.04 in10.0 miSSE (160°)4.6 mphClear
8:15 PM44.6 °F28.4 °F53 %30.04 in10.0 miCalmClear
8:35 PM46.4 °F26.6 °F46 %30.04 in10.0 miSouth (180°)4.6 mphClear
8:55 PM44.6 °F26.6 °F49 %30.04 in10.0 miSouth (170°)3.5 mphClear
9:15 PM44.6 °F24.8 °F46 %30.04 in10.0 miCalmClear
9:35 PM44.6 °F26.6 °F49 %30.05 in10.0 miCalmClear
9:55 PM44.6 °F26.6 °F49 %30.05 in10.0 miCalmClear
10:15 PM44.6 °F26.6 °F49 %30.06 in10.0 miCalmClear
10:35 PM44.6 °F26.6 °F49 %30.06 in10.0 miCalmClear
10:55 PM35.6 °F28.4 °F75 %30.05 in10.0 miSE (130°)3.5 mphClear
11:15 PM37.4 °F26.6 °F65 %30.06 in10.0 miCalmClear
11:35 PM35.6 °F28.4 °F75 %30.05 in10.0 miESE (110°)3.5 mphClear
11:55 PM33.8 °F28.4 °F81 %30.05 in10.0 miESE (120°)3.5 mphClear
Hourly data recorded from KBWD, located miles away from Santa Anna, Texas







STORIES FROM OUR PARTNERS